{"data":{"norad_id":53763,"epoch":"2026-05-25T03:57:40.741632Z","epoch_age_seconds":60472,"freshness":"FRESH","line1":"1 53763U 22109D   26145.16505488  .00005327  00000+0  22150-3 0  9992","line2":"2 53763  34.9898 141.8657 0001835  44.4351 315.6510 15.23150850206860","mean_motion":15.2315085,"eccentricity":0.0001835,"inclination_deg":34.9898,"raan_deg":141.8657,"arg_perigee_deg":44.4351,"mean_anomaly_deg":315.651,"bstar":0.0002215,"rev_number":20686,"period_min":94.540865732373,"perigee_km":495.08222506629,"apogee_km":497.60515948035,"semimajor_km":6874.4806922733,"source":"CELESTRAK","updated_at":"2026-05-25T13:37:58.371030Z"}}